Precipitable_Water
0.37 0.38 0.40 0.39 0.43 0.44 0.45 0.47 0.44 0.35 0.37 0.45 0.57 0.70 0.76 0.78 0.82 0.89 0.99 1.05 1.04 1.10 1.08 1.14 1.20 1.23 1.21 1.19 1.15 1.17 1.14 1.12 1.11 1.04 1.03 1.03 1.00 0.92
0.38 0.39 0.41 0.41 0.43 0.45 0.47 0.49 0.53 0.50 0.41 0.50 0.54 0.61 0.68 0.71 0.73 0.75 0.78 0.87 0.98 1.04 1.07 1.07 1.08 1.18 1.18 1.17 1.18 1.14 1.11 1.11 1.07 1.03 1.02 0.99 0.99 0.92
0.38 0.38 0.39 0.44 0.45 0.46 0.50 0.52 0.49 0.51 0.48 0.46 0.54 0.60 0.59 0.59 0.64 0.70 0.69 0.73 0.84 0.86 0.91 0.99 1.04 1.08 1.10 1.14 1.15 1.11 1.10 1.08 1.04 1.02 1.00 0.97 0.95 0.88
0.39 0.42 0.43 0.48 0.51 0.53 0.50 0.50 0.49 0.51 0.50 0.42 0.49 0.51 0.53 0.56 0.54 0.58 0.60 0.65 0.67 0.72 0.76 0.80 0.91 0.99 1.06 1.09 1.11 1.10 1.08 1.05 1.02 1.01 0.98 0.95 0.91 0.84
0.44 0.45 0.46 0.49 0.50 0.50 0.51 0.52 0.54 0.54 0.54 0.48 0.45 0.51 0.53 0.54 0.48 0.46 0.47 0.50 0.57 0.60 0.61 0.68 0.77 0.88 0.95 1.01 1.03 1.05 1.05 1.01 0.99 0.96 0.94 0.91 0.86 0.77
0.45 0.46 0.46 0.48 0.49 0.51 0.54 0.53 0.51 0.48 0.47 0.43 0.41 0.46 0.51 0.52 0.50 0.38 0.33 0.43 0.45 0.50 0.53 0.59 0.66 0.72 0.85 0.94 0.96 0.99 1.00 0.97 0.94 0.92 0.89 0.87 0.83 0.77
0.40 0.43 0.45 0.49 0.53 0.56 0.52 0.47 0.44 0.40 0.39 0.38 0.36 0.40 0.44 0.47 0.45 0.41 0.38 0.41 0.42 0.46 0.45 0.53 0.62 0.66 0.74 0.81 0.93 0.96 0.96 0.95 0.91 0.88 0.85 0.83 0.79 0.75
0.35 0.38 0.40 0.41 0.44 0.47 0.50 0.51 0.48 0.43 0.40 0.38 0.35 0.35 0.39 0.47 0.48 0.43 0.41 0.39 0.34 0.48 0.48 0.52 0.63 0.62 0.61 0.77 0.81 0.88 0.89 0.89 0.89 0.85 0.82 0.80 0.76 0.71
0.36 0.35 0.35 0.39 0.40 0.40 0.42 0.45 0.48 0.49 0.48 0.44 0.37 0.37 0.40 0.46 0.44 0.41 0.41 0.41 0.39 0.46 0.50 0.47 0.57 0.58 0.64 0.71 0.74 0.77 0.86 0.86 0.85 0.82 0.79 0.76 0.72 0.68
0.37 0.37 0.38 0.37 0.40 0.42 0.42 0.42 0.43 0.47 0.48 0.49 0.44 0.42 0.46 0.48 0.43 0.44 0.44 0.43 0.45 0.47 0.53 0.44 0.53 0.55 0.65 0.68 0.74 0.72 0.77 0.79 0.79 0.78 0.75 0.71 0.67 0.57
0.35 0.37 0.38 0.38 0.43 0.47 0.47 0.44 0.44 0.44 0.50 0.51 0.47 0.45 0.45 0.45 0.45 0.44 0.41 0.41 0.39 0.44 0.53 0.51 0.52 0.54 0.59 0.60 0.65 0.66 0.72 0.74 0.73 0.72 0.68 0.64 0.58 0.54
0.32 0.34 0.38 0.41 0.44 0.46 0.46 0.46 0.42 0.44 0.48 0.46 0.44 0.44 0.44 0.43 0.47 0.50 0.48 0.43 0.45 0.45 0.52 0.48 0.49 0.53 0.46 0.52 0.56 0.58 0.60 0.69 0.68 0.65 0.62 0.58 0.54 0.51
0.31 0.32 0.37 0.42 0.43 0.46 0.48 0.46 0.44 0.46 0.47 0.46 0.43 0.40 0.39 0.42 0.46 0.49 0.53 0.52 0.48 0.46 0.52 0.51 0.48 0.49 0.47 0.44 0.49 0.54 0.59 0.59 0.59 0.58 0.57 0.56 0.55 0.52
0.32 0.34 0.38 0.42 0.42 0.44 0.45 0.46 0.47 0.47 0.45 0.42 0.38 0.36 0.37 0.41 0.47 0.52 0.54 0.53 0.54 0.52 0.54 0.53 0.48 0.47 0.45 0.42 0.42 0.49 0.52 0.54 0.54 0.52 0.53 0.53 0.51 0.49
0.35 0.38 0.41 0.41 0.41 0.43 0.45 0.46 0.46 0.43 0.39 0.36 0.34 0.37 0.42 0.46 0.49 0.50 0.51 0.51 0.51 0.51 0.52 0.52 0.49 0.48 0.46 0.43 0.42 0.44 0.45 0.47 0.50 0.49 0.48 0.47 0.46 0.46
0.36 0.39 0.41 0.40 0.42 0.42 0.41 0.41 0.40 0.38 0.37 0.36 0.38 0.42 0.45 0.45 0.45 0.47 0.45 0.45 0.44 0.44 0.49 0.50 0.50 0.49 0.45 0.45 0.44 0.43 0.44 0.42 0.45 0.45 0.45 0.45 0.46 0.45
0.36 0.39 0.39 0.38 0.37 0.37 0.37 0.37 0.37 0.37 0.37 0.41 0.41 0.41 0.41 0.43 0.42 0.44 0.44 0.43 0.41 0.40 0.41 0.44 0.47 0.48 0.47 0.45 0.41 0.42 0.42 0.42 0.43 0.43 0.42 0.40 0.42 0.42
0.36 0.37 0.37 0.36 0.35 0.35 0.35 0.34 0.36 0.38 0.40 0.41 0.41 0.41 0.40 0.40 0.40 0.42 0.42 0.41 0.39 0.40 0.40 0.42 0.42 0.41 0.41 0.42 0.45 0.41 0.41 0.40 0.41 0.41 0.41 0.38 0.37 0.37
0.33 0.37 0.38 0.36 0.35 0.35 0.35 0.34 0.35 0.40 0.42 0.41 0.41 0.40 0.40 0.40 0.39 0.39 0.40 0.40 0.39 0.39 0.40 0.41 0.41 0.39 0.35 0.33 0.38 0.43 0.39 0.39 0.39 0.38 0.37 0.34 0.30 0.29
0.33 0.35 0.38 0.37 0.36 0.35 0.35 0.35 0.37 0.39 0.40 0.41 0.41 0.40 0.40 0.39 0.38 0.38 0.39 0.38 0.38 0.38 0.38 0.40 0.39 0.38 0.35 0.34 0.34 0.37 0.42 0.38 0.36 0.32 0.26 0.23 0.22 0.22
0.33 0.35 0.39 0.38 0.37 0.36 0.35 0.36 0.38 0.39 0.40 0.41 0.40 0.40 0.40 0.39 0.38 0.39 0.39 0.39 0.38 0.37 0.35 0.35 0.37 0.39 0.38 0.37 0.33 0.31 0.30 0.28 0.23 0.19 0.18 0.17 0.17 0.18
0.34 0.35 0.39 0.39 0.38 0.37 0.36 0.37 0.39 0.39 0.40 0.40 0.40 0.40 0.40 0.40 0.38 0.38 0.38 0.36 0.35 0.34 0.33 0.31 0.27 0.21 0.17 0.16 0.15 0.15 0.17 0.18 0.21 0.21 0.21 0.20 0.18 0.15
0.35 0.35 0.38 0.39 0.39 0.38 0.37 0.38 0.39 0.39 0.40 0.40 0.40 0.40 0.40 0.38 0.39 0.38 0.37 0.34 0.30 0.24 0.19 0.14 0.14 0.14 0.13 0.14 0.14 0.15 0.16 0.17 0.18 0.18 0.18 0.19 0.17 0.16
Wind_Speed
54 53 52 52 50 49 47 45 42 40 39 38 40 40 41 41 43 44 45 46 45 46 46 47 52 55 55 53 51 46 43 42 40 38 37 35 34 33
54 54 53 51 48 45 43 40 39 38 37 35 35 37 39 41 41 42 43 44 44 40 43 44 43 51 52 52 51 48 46 43 42 39 37 36 34 34
54 53 52 49 46 44 41 39 38 36 37 36 34 35 34 35 39 40 41 43 44 46 46 42 43 43 43 49 50 47 45 44 42 41 38 36 35 34
52 49 47 43 41 38 36 35 35 34 34 36 35 33 34 32 32 35 37 40 43 44 46 48 49 49 47 50 49 51 48 47 44 41 38 36 34 34
46 43 40 39 38 36 35 35 34 34 34 34 34 34 33 30 31 31 32 35 37 40 43 46 48 50 52 52 50 48 48 48 45 44 41 36 33 34
40 38 37 36 35 32 31 32 32 33 32 32 33 33 31 31 30 31 32 32 33 35 39 42 45 48 51 50 54 54 51 49 47 44 42 38 35 34
36 35 35 35 32 32 34 34 33 31 30 31 31 30 29 31 29 28 30 32 34 35 37 38 40 42 44 49 51 52 55 52 48 46 43 38 36 33
35 34 34 34 32 33 35 35 34 34 33 31 30 29 28 27 29 29 28 29 30 31 33 35 35 39 41 44 49 51 56 58 53 49 45 41 37 35
36 35 36 36 36 36 36 36 36 35 35 33 31 29 29 27 28 28 30 30 30 31 30 30 32 34 38 40 45 50 48 54 54 51 47 42 39 36
37 38 39 39 39 39 38 36 35 34 33 32 31 30 30 29 29 29 29 30 30 30 30 30 30 28 31 36 42 46 48 49 50 48 44 41 38 35
39 39 40 42 43 42 40 39 36 33 32 32 31 30 30 30 29 28 27 27 27 26 24 23 23 22 23 27 36 40 44 45 44 43 42 38 35 33
41 40 41 43 40 38 34 32 31 29 29 29 28 29 28 27 27 27 26 25 23 21 20 19 20 22 20 23 31 35 40 43 41 40 38 36 33 31
41 41 41 41 37 34 30 28 27 25 24 25 24 24 23 24 24 23 23 21 19 18 19 19 20 21 22 24 26 31 36 37 37 36 35 33 31 30
40 40 40 37 32 30 26 22 20 18 18 17 18 18 17 17 18 18 16 15 16 16 18 18 20 22 24 26 26 30 33 33 32 32 31 30 28 28
39 38 37 31 29 24 19 15 14 14 13 13 12 13 14 14 13 11 9 9 10 12 15 16 18 21 25 25 27 30 31 31 30 28 27 27 27 26
37 35 30 26 24 19 15 12 11 10 9 8 9 10 10 9 8 9 8 7 8 11 12 13 18 19 22 24 26 28 30 27 30 28 26 24 24 24
34 30 25 22 20 16 13 11 9 7 6 7 7 5 5 6 7 9 9 8 9 11 12 13 16 17 18 22 24 24 24 24 25 25 23 21 20 20
29 26 22 20 19 14 11 9 7 6 6 4 2 4 6 7 8 9 10 11 12 12 13 14 16 17 17 16 18 21 20 20 20 19 19 18 17 17
25 23 21 19 18 13 10 7 6 4 2 1 4 7 8 9 10 11 12 13 13 13 13 13 14 15 15 14 15 16 17 17 17 16 16 16 15 16
24 22 20 18 16 11 9 7 6 4 3 5 7 9 10 11 12 13 14 15 15 15 15 14 14 14 14 14 14 14 15 15 15 14 13 13 12 13
22 21 19 15 13 10 8 7 7 7 6 9 9 10 11 12 13 14 14 14 14 13 12 12 11 12 12 13 13 12 11 12 12 12 12 12 12 14
21 20 18 14 12 10 9 9 8 9 10 12 11 11 12 12 13 13 13 12 11 11 11 11 11 11 11 11 12 11 10 9 9 9 10 12 13 15
20 19 17 13 12 10 10 10 10 11 14 14 13 13 13 13 13 12 12 12 11 11 10 10 10 9 10 10 10 9 8 8 8 9 10 12 14 16
Wind_Direction
301 300 299 298 298 296 294 291 288 288 286 284 267 270 264 262 258 255 252 252 252 247 247 246 242 240 240 240 239 241 240 240 240 240 240 239 237 233
302 300 298 297 295 294 291 290 287 285 284 283 277 274 270 263 260 257 255 253 248 245 247 244 245 239 238 238 235 237 238 237 237 238 236 235 235 234
303 301 298 296 293 292 289 288 287 284 282 281 279 276 274 270 262 258 256 253 251 250 248 248 244 241 237 233 232 236 235 235 235 234 231 232 234 234
305 303 300 296 294 292 291 288 288 286 283 280 278 277 273 272 268 263 260 256 254 253 252 249 247 244 242 240 239 236 235 233 232 226 227 228 232 233
307 304 301 299 293 291 290 289 287 286 284 282 279 276 271 270 269 265 263 258 255 256 255 251 248 246 244 241 237 232 232 228 227 226 225 229 228 232
309 306 305 302 297 289 291 291 288 288 286 283 281 276 270 268 268 268 265 262 260 261 259 255 252 248 244 241 236 232 230 224 225 223 223 226 232 232
313 311 308 304 299 290 291 291 287 287 288 287 283 277 274 265 265 267 266 266 263 265 263 259 254 247 245 241 235 231 226 223 221 221 221 227 230 232
317 314 312 310 303 296 290 288 287 282 284 285 282 275 273 270 264 267 267 267 267 269 266 261 254 248 243 239 234 229 226 222 223 224 223 227 230 233
315 314 312 308 303 298 294 289 284 280 278 279 280 275 271 269 268 269 267 267 267 271 266 258 256 249 242 238 230 223 222 220 221 223 225 226 228 232
315 312 311 309 304 299 294 290 287 280 277 274 274 277 269 269 269 268 269 269 269 269 262 258 255 247 241 234 225 219 217 215 216 217 218 222 227 229
316 313 312 310 307 301 293 287 285 280 275 271 271 274 271 267 267 267 269 269 267 266 258 247 242 231 227 220 212 210 208 207 208 212 214 218 222 229
316 315 314 314 311 307 299 290 283 280 275 271 271 270 273 263 264 265 268 267 262 255 245 238 222 216 216 209 203 204 204 203 205 207 212 218 225 232
316 316 316 316 313 310 302 293 285 282 276 273 268 270 269 261 261 267 266 259 250 246 232 223 216 211 210 201 197 197 194 197 202 209 215 220 229 238
318 317 318 317 315 314 307 299 289 282 277 272 270 269 263 261 262 263 256 249 241 235 219 218 213 208 201 194 195 194 194 199 203 210 216 225 236 240
319 318 318 317 318 318 314 307 299 288 280 274 269 266 263 259 255 240 235 224 219 210 206 209 202 198 197 200 197 195 195 201 205 211 221 231 237 237
320 321 319 318 320 317 315 311 305 296 284 274 274 267 259 242 222 209 196 187 182 178 185 191 190 191 192 192 192 195 199 208 210 217 224 231 233 236
320 322 319 319 319 314 312 313 310 298 288 287 280 251 221 195 187 184 178 166 162 166 166 167 172 176 182 190 195 197 202 208 214 222 225 228 229 229
320 320 318 317 317 307 303 306 304 298 301 284 237 181 167 166 162 157 160 157 153 153 153 156 160 162 167 171 184 190 195 199 204 209 214 218 225 229
320 319 317 316 314 298 291 289 282 285 302 179 152 146 144 142 141 140 140 143 146 146 149 152 156 161 163 169 173 180 186 192 196 202 210 218 222 225
320 318 315 314 314 290 277 267 257 246 219 169 153 144 140 137 135 134 135 136 136 136 136 138 143 148 154 162 165 169 179 185 190 196 203 212 221 228
319 318 314 309 309 290 262 247 236 216 198 177 166 159 153 147 143 143 140 139 138 139 140 144 150 153 154 156 160 166 172 181 193 203 213 225 238 248
315 315 312 301 299 281 248 235 225 214 195 185 179 172 166 162 159 155 153 151 149 148 145 148 153 155 158 165 166 171 178 186 196 212 230 245 254 262
311 311 308 294 290 271 243 231 220 210 199 193 191 187 182 177 173 169 166 163 159 155 154 153 153 156 158 164 169 180 188 207 227 241 256 266 272 277